Tracking 32938 objects as of 13-Jan-2026
HD Live streaming from Space Station
objects crossing your sky now

THOR ABLESTAR DEB

Track THOR ABLESTAR DEB now!
10-day predictions


NORAD ID: 21986
Int'l Code: 1961-015MM
Perigee: 812.3 km
Apogee: 946.2 km
Inclination: 66.9 °
Period: 102.4 minutes
Semi major axis: 7250 km
RCS: 0.0015 m2 (small)
Launch date: June 29, 1961
Source: United States (US)
Launch site: AIR FORCE EASTERN TEST RANGE (AFETR)

Note: This is SATELLITE DEBRIS
Your satellite tracking list
Your tracking list is empty




NASA's NSSDC Master Catalog

Two Line Element Set (TLE):
1 21986U 61015MM  26011.29174203  .00000377  00000-0  26628-3 0  9991
2 21986  66.8743 197.9956 0092312 150.5949  23.5726 14.06287166730835
Source of the keplerian elements: AFSPC